sat.trackr.live / text

‹ back to catalog

ONEWEB-0390

NORAD 50470 · 2021-132B

PAYLOAD ACTIVE UNKNOWN

§ Identity

Operator
Country
UK
Launch date
2021-12-27
Launch site
TYMSC
Launch vehicle
Mass (kg)
RCS (m²)

Purposes: comms

External: N2YO · Heavens-Above · Gunter

§ Orbital elements

Epoch: 2026-05-25T02:46:45.431904Z

Period
109.29 min
Inclination
87.9153°
Eccentricity
0.0001685
Mean motion
13.17651097 rev/d
Perigee alt
1,192.4 km
Apogee alt
1,195.0 km
Semi-major
7,571.8 km
B*
5.5291e-5
RAAN
10.4572°
Arg perigee
90.7515°
Mean anomaly
269.3810°
Rev number
21,504

§ Raw data

ONEWEB-03901 50470U 21132B   26145.11580361  .00000034  00000+0  55291-4 0  99902 50470  87.9153  10.4572 0001685  90.7515 269.3810 13.17651097215048

JSON: /api/v1/satellites/50470 · /tle

For live sub-satellite position, see the globe view (requires WebGL).

§ Visibility from observer

Set your observer location to see the next 7 days of passes ≥ 10°. The values pass through the URL so the page stays shareable.

No JS? Fill the form by hand. The geolocation button needs JavaScript.